Content
SEND FEEDBACK

Daily
Averages
Monthly
Summary
United States of America

ARCADIA, NEBRASKA


Home > North America > United States > Nebraska
Elevation: 2190 feet     Latitude: 41 25N     Longitude: 099 08W

WEATHER
 
SELECT A DAY
Number of Records: 174,155;   Date Range: 1/1/95 - 11/21/14
 
SHARE

PRINT THIS DATA

[ ← Previous Day ]
WEATHER ALMANAC - JANUARY 3, 2013
[ Next Day → ]
[ °C ]   °F
Weather ElementAverageHighLow
Temperature22.9 °F30 °F (1:53 pm)12.9 °F (11:53 pm)
Dewpoint16.5 °F23 °F (2:53 am)9 °F (11:53 pm)
Humidity77.4 %88 % (2:53 am)54 % (2:53 pm)
Barometer30.35 in30.45 in (9:53 am)30.26 in (2:24 am)
Wind Speed8.7 mph13.8 mph (5:03 am)
Weather ElementAverage
Visibility9.7 mi
Wind DirectionWNW (285 °)

Weather ElementTotal
Precipitation---
Heating Degree Days43.6 (Base 65)
Averaged from 30 records on January 3, 2013
WEATHER CONDITIONS BREAKOUT
WIND DIRECTION BREAKOUT
WEATHER BY HOUR - JANUARY 3, 2013
[ °C ]   °F
Local TimeTemperatureDewpointHumidityBarometerVisibilityWind DirectionWind SpeedGust SpeedPrecipitationEventsConditions
1:53 AM26.1 °F19.9 °F78 %30.32 in10.0 miNW (320°)10.4 mphOvercast
2:24 AM26.6 °F21.2 °F80 %30.26 in10.0 miNNW (330°)10.4 mph0.00 inOvercast
2:41 AM26.6 °F21.2 °F80 %30.27 in8.0 miNNW (330°)11.5 mph0.00 inOvercast
2:53 AM26.1 °F23.0 °F88 %30.35 in9.0 miNNW (330°)10.4 mph0.00 inOvercast
3:26 AM26.6 °F23.0 °F86 %30.28 in7.0 miNW (310°)9.2 mph0.00 inOvercast
3:53 AM26.1 °F23.0 °F88 %30.36 in7.0 miNW (310°)10.4 mph0.00 inSnowLight Snow
4:06 AM26.6 °F21.2 °F80 %30.28 in9.0 miNW (320°)10.4 mph0.00 inOvercast
4:35 AM24.8 °F21.2 °F86 %30.29 in10.0 miNW (320°)11.5 mph0.00 inOvercast
4:53 AM25.0 °F21.9 °F88 %30.36 in10.0 miNW (320°)11.5 mph0.00 inOvercast
5:03 AM24.8 °F21.2 °F86 %30.29 in10.0 miNW (320°)13.8 mphOvercast
5:53 AM25.0 °F19.9 °F81 %30.38 in10.0 miNNW (330°)11.5 mphOvercast
6:11 AM24.8 °F21.2 °F86 %30.30 in10.0 miNW (310°)8.1 mphOvercast
6:53 AM24.1 °F19.0 °F81 %30.40 in10.0 miNW (320°)9.2 mphOvercast
7:53 AM16.0 °F12.9 °F88 %30.44 in10.0 miNW (310°)5.8 mphClear
8:53 AM17.1 °F12.0 °F81 %30.44 in10.0 miNW (320°)5.8 mphClear
9:53 AM19.9 °F14.0 °F78 %30.45 in10.0 miNW (310°)5.8 mphClear
10:53 AM24.1 °F15.1 °F69 %30.45 in10.0 miNNW (330°)8.1 mphMostly Cloudy
11:53 AM27.0 °F15.1 °F61 %30.42 in10.0 miWNW (300°)8.1 mphClear
12:53 PM28.0 °F15.1 °F58 %30.38 in10.0 miWNW (300°)10.4 mphMostly Cloudy
1:53 PM30.0 °F16.0 °F56 %30.36 in10.0 miNW (310°)9.2 mphMostly Cloudy
2:53 PM28.9 °F14.0 °F54 %30.34 in10.0 miWest (270°)8.1 mphClear
3:53 PM30.0 °F15.1 °F54 %30.34 in10.0 miWSW (240°)11.5 mphClear
4:53 PM26.1 °F15.1 °F63 %30.35 in10.0 miWest (260°)3.5 mphClear
5:53 PM18.0 °F10.9 °F74 %30.36 in10.0 miSouth (170°)5.8 mphClear
6:53 PM16.0 °F10.0 °F77 %30.38 in10.0 miSSW (210°)5.8 mphClear
7:53 PM14.0 °F10.0 °F84 %30.38 in10.0 miSW (220°)6.9 mphClear
8:53 PM16.0 °F12.0 °F84 %30.36 in10.0 miSSW (210°)8.1 mphClear
9:53 PM14.0 °F10.0 °F84 %30.35 in10.0 miSSW (210°)6.9 mphClear
10:53 PM15.1 °F10.9 °F84 %30.34 in10.0 miSSW (210°)9.2 mphClear
11:53 PM12.9 °F9.0 °F84 %30.33 in10.0 miSSW (200°)4.6 mphClear
Hourly data recorded from KODX, located miles away from Arcadia, Nebraska







STORIES FROM OUR PARTNERS